Tracking 28091 objects as of 30-Sep-2023
HD Live streaming from Space Station
objects crossing your sky now

CZ-4C DEB

Track CZ-4C DEB now!
10-day predictions


NORAD ID: 39243
Int'l Code: 2013-046E
Perigee: 840.4 km
Apogee: 1,358.5 km
Inclination: 63.4 °
Period: 107.1 minutes
Semi major axis: 7470 km
RCS: Unknown
Launch date: September 1, 2013
Source: People's Republic of China (PRC)
Launch site: Jiuquan Satellite Launch Center, China (JSC)

Note: This is SATELLITE DEBRIS
Your satellite tracking list
Your tracking list is empty




NASA's NSSDC Master Catalog

Two Line Element Set (TLE):
1 39243U 13046E   23272.11534123  .00000147  00000-0  28230-3 0  9991
2 39243  63.3959 140.2744 0346723   9.2026 351.5138 13.44566330494585
Source of the keplerian elements: AFSPC